When you browse on this site, cookies collect data to enhance your experience and personalize the content and advertising you see.
Visit our Privacy Policy to learn more. By continuing to use the site, you agree to this use of cookies and data.
  • In Schweiz
  • Länderverzeichnis
  • Für 7 Tage
  • Wassertemperatur
  • Satellitenkarten
  • Wetterkarte
  • Widgets
  • user-avatar
    Anmelden

    Stündliche Wetter Freiberg

    Heute, 27 Mai, Montag

    Zeit Temperatur Niederschläge Wind Luftdruck Luftfeuchtigkeit
    00:00 +12°C° 0 mm 3 m/S 723 mmHg 84%
    01:00 +12°C° 0 mm 3 m/S 723 mmHg 83%
    02:00 +12°C° 0 mm 3 m/S 723 mmHg 83%
    03:00 +12°C° 0 mm 3 m/S 722 mmHg 82%
    04:00 +11°C° 0 mm 4 m/S 722 mmHg 81%
    05:00 +13°C° 0 mm 4 m/S 722 mmHg 79%
    06:00 +14°C° 0 mm 4 m/S 722 mmHg 78%
    07:00 +15°C° 0 mm 4 m/S 722 mmHg 76%
    08:00 +17°C° 0 mm 4 m/S 722 mmHg 71%
    09:00 +19°C° 0 mm 4 m/S 723 mmHg 66%
    10:00 +20°C° 0 mm 5 m/S 723 mmHg 61%
    11:00 +20°C° 0.1 mm 4 m/S 722 mmHg 61%
    12:00 +21°C° 0.1 mm 4 m/S 722 mmHg 61%
    13:00 +22°C° 0.1 mm 4 m/S 721 mmHg 61%
    14:00 +21°C° 0.9 mm 3 m/S 721 mmHg 67%
    15:00 +20°C° 0.9 mm 3 m/S 721 mmHg 73%
    16:00 +19°C° 0.9 mm 3 m/S 720 mmHg 79%
    17:00 +18°C° 0.7 mm 2 m/S 720 mmHg 83%
    18:00 +18°C° 0.7 mm 2 m/S 720 mmHg 87%
    19:00 +17°C° 0.7 mm 2 m/S 720 mmHg 91%
    20:00 +16°C° 0.2 mm 1 m/S 720 mmHg 92%
    21:00 +14°C° 0.2 mm 1 m/S 720 mmHg 94%
    22:00 +13°C° 0.2 mm 1 m/S 719 mmHg 95%
    23:00 +13°C° 0.1 mm 1 m/S 719 mmHg 95%

    Morgen, 28 Mai, Dienstag

    Zeit Temperatur Niederschläge Wind Luftdruck Luftfeuchtigkeit
    00:00 +13°C° 0.1 mm 1 m/S 719 mmHg 96%
    01:00 +13°C° 0.1 mm 1 m/S 719 mmHg 97%
    02:00 +13°C° 0.4 mm 2 m/S 719 mmHg 97%
    03:00 +13°C° 0.4 mm 2 m/S 718 mmHg 97%
    04:00 +12°C° 0.4 mm 3 m/S 718 mmHg 97%
    05:00 +11°C° 0.5 mm 3 m/S 718 mmHg 96%
    06:00 +11°C° 0.5 mm 3 m/S 718 mmHg 96%
    07:00 +11°C° 0.5 mm 3 m/S 718 mmHg 96%
    08:00 +11°C° 0.4 mm 3 m/S 718 mmHg 95%
    09:00 +11°C° 0.4 mm 3 m/S 719 mmHg 94%
    10:00 +11°C° 0.4 mm 3 m/S 719 mmHg 92%
    11:00 +11°C° 0.1 mm 3 m/S 719 mmHg 88%
    12:00 +12°C° 0.1 mm 3 m/S 719 mmHg 84%
    13:00 +12°C° 0.1 mm 3 m/S 720 mmHg 79%
    14:00 +14°C° 0 mm 2 m/S 720 mmHg 76%
    15:00 +14°C° 0 mm 2 m/S 720 mmHg 73%
    16:00 +14°C° 0 mm 2 m/S 720 mmHg 70%
    17:00 +14°C° 0 mm 1 m/S 721 mmHg 73%
    18:00 +14°C° 0 mm 1 m/S 721 mmHg 76%
    19:00 +12°C° 0 mm 0 m/S 722 mmHg 79%
    20:00 +12°C° 0 mm 1 m/S 722 mmHg 83%
    21:00 +11°C° 0 mm 1 m/S 723 mmHg 87%
    22:00 +10°C° 0 mm 1 m/S 723 mmHg 91%
    23:00 +10°C° 0 mm 1 m/S 723 mmHg 92%

    übermorgen, 29 Mai, Mittwoch

    Zeit Temperatur Niederschläge Wind Luftdruck Luftfeuchtigkeit
    00:00 +10°C° 0 mm 1 m/S 724 mmHg 93%
    01:00 +10°C° 0 mm 1 m/S 724 mmHg 94%
    02:00 +9°C° 0.1 mm 1 m/S 724 mmHg 94%
    03:00 +8°C° 0.1 mm 2 m/S 725 mmHg 94%
    04:00 +8°C° 0.1 mm 2 m/S 725 mmHg 94%
    05:00 +8°C° 0.5 mm 2 m/S 726 mmHg 93%
    06:00 +8°C° 0.5 mm 3 m/S 726 mmHg 92%
    07:00 +7°C° 0.5 mm 3 m/S 727 mmHg 91%
    08:00 +8°C° 0.1 mm 2 m/S 727 mmHg 86%
    09:00 +9°C° 0.1 mm 2 m/S 727 mmHg 82%
    10:00 +10°C° 0.1 mm 2 m/S 728 mmHg 77%
    11:00 +12°C° 0 mm 2 m/S 728 mmHg 70%
    12:00 +13°C° 0 mm 2 m/S 728 mmHg 64%
    13:00 +15°C° 0 mm 2 m/S 728 mmHg 58%
    14:00 +15°C° 0 mm 2 m/S 728 mmHg 58%
    15:00 +15°C° 0 mm 2 m/S 728 mmHg 59%
    16:00 +16°C° 0 mm 2 m/S 728 mmHg 59%
    17:00 +15°C° 0 mm 2 m/S 728 mmHg 63%
    18:00 +14°C° 0 mm 1 m/S 728 mmHg 68%
    19:00 +13°C° 0 mm 1 m/S 728 mmHg 73%
    20:00 +12°C° 0 mm 1 m/S 728 mmHg 75%
    21:00 +11°C° 0 mm 1 m/S 729 mmHg 78%
    22:00 +9°C° 0 mm 1 m/S 729 mmHg 80%
    23:00 +9°C° 0 mm 1 m/S 729 mmHg 80%

    30 Mai, Donnerstag

    Zeit Temperatur Niederschläge Wind Luftdruck Luftfeuchtigkeit
    00:00 +9°C° 0 mm 1 m/S 729 mmHg 80%
    01:00 +7°C° 0 mm 2 m/S 729 mmHg 79%
    02:00 +7°C° 0 mm 2 m/S 729 mmHg 78%
    03:00 +7°C° 0 mm 2 m/S 729 mmHg 77%
    04:00 +7°C° 0 mm 2 m/S 729 mmHg 76%
    05:00 +9°C° 0 mm 2 m/S 729 mmHg 75%
    06:00 +11°C° 0 mm 3 m/S 729 mmHg 74%
    07:00 +12°C° 0 mm 3 m/S 729 mmHg 73%
    08:00 +14°C° 0 mm 3 m/S 729 mmHg 68%
    09:00 +17°C° 0 mm 4 m/S 729 mmHg 63%
    10:00 +18°C° 0 mm 4 m/S 729 mmHg 59%
    11:00 +17°C° 0.1 mm 4 m/S 729 mmHg 64%
    12:00 +16°C° 0.1 mm 5 m/S 729 mmHg 69%
    13:00 +15°C° 0.1 mm 5 m/S 729 mmHg 74%
    14:00 +16°C° 0 mm 5 m/S 729 mmHg 73%
    15:00 +18°C° 0 mm 4 m/S 729 mmHg 72%
    16:00 +18°C° 0 mm 4 m/S 729 mmHg 70%
    17:00 +18°C° 0.2 mm 4 m/S 729 mmHg 75%
    18:00 +17°C° 0.2 mm 3 m/S 729 mmHg 81%
    19:00 +16°C° 0.2 mm 3 m/S 729 mmHg 86%
    20:00 +14°C° 0 mm 3 m/S 729 mmHg 88%
    21:00 +13°C° 0 mm 3 m/S 729 mmHg 91%
    22:00 +12°C° 0 mm 4 m/S 729 mmHg 93%
    23:00 +12°C° 0 mm 4 m/S 729 mmHg 94%

    31 Mai, Freitag

    Zeit Temperatur Niederschläge Wind Luftdruck Luftfeuchtigkeit
    00:00 +12°C° 0 mm 4 m/S 729 mmHg 94%
    01:00 +12°C° 0 mm 4 m/S 729 mmHg 95%
    02:00 +12°C° 0 mm 4 m/S 729 mmHg 95%
    03:00 +12°C° 0 mm 4 m/S 728 mmHg 95%
    04:00 +12°C° 0 mm 3 m/S 728 mmHg 94%
    05:00 +12°C° 0.4 mm 4 m/S 728 mmHg 94%
    06:00 +13°C° 0.4 mm 4 m/S 728 mmHg 93%
    07:00 +13°C° 0.4 mm 4 m/S 728 mmHg 93%
    08:00 +13°C° 1.2 mm 5 m/S 728 mmHg 93%
    09:00 +13°C° 1.2 mm 5 m/S 728 mmHg 93%
    10:00 +13°C° 1.2 mm 5 m/S 728 mmHg 93%
    11:00 +13°C° 1.6 mm 5 m/S 728 mmHg 93%
    12:00 +13°C° 1.6 mm 5 m/S 728 mmHg 93%
    13:00 +14°C° 1.6 mm 5 m/S 728 mmHg 93%
    14:00 +14°C° 0.2 mm 5 m/S 729 mmHg 92%
    15:00 +14°C° 0.2 mm 5 m/S 729 mmHg 91%
    16:00 +14°C° 0.2 mm 6 m/S 729 mmHg 90%
    17:00 +13°C° 0.1 mm 6 m/S 729 mmHg 91%
    18:00 +12°C° 0.1 mm 5 m/S 730 mmHg 93%
    19:00 +9°C° 0.1 mm 5 m/S 730 mmHg 94%
    20:00 +9°C° 0.1 mm 5 m/S 731 mmHg 94%
    21:00 +8°C° 0.1 mm 5 m/S 732 mmHg 94%
    22:00 +7°C° 0.1 mm 5 m/S 732 mmHg 95%
    23:00 +6°C° 0 mm 4 m/S 733 mmHg 95%

    1 Juni, Samstag

    Zeit Temperatur Niederschläge Wind Luftdruck Luftfeuchtigkeit
    00:00 +5°C° 0 mm 4 m/S 733 mmHg 95%
    01:00 +4°C° 0 mm 3 m/S 733 mmHg 95%
    02:00 +4°C° 0 mm 3 m/S 733 mmHg 95%
    03:00 +3°C° 0 mm 3 m/S 733 mmHg 94%
    04:00 +2°C° 0 mm 3 m/S 734 mmHg 94%
    05:00 +3°C° 0 mm 3 m/S 734 mmHg 93%
    06:00 +5°C° 0 mm 3 m/S 734 mmHg 92%
    07:00 +7°C° 0 mm 3 m/S 735 mmHg 91%
    08:00 +9°C° 0 mm 3 m/S 735 mmHg 85%
    09:00 +10°C° 0 mm 4 m/S 735 mmHg 78%
    10:00 +11°C° 0 mm 4 m/S 735 mmHg 71%
    11:00 +12°C° 0 mm 4 m/S 735 mmHg 68%
    12:00 +13°C° 0 mm 4 m/S 735 mmHg 65%
    13:00 +14°C° 0 mm 4 m/S 735 mmHg 62%
    14:00 +14°C° 0 mm 4 m/S 735 mmHg 61%
    15:00 +14°C° 0 mm 4 m/S 735 mmHg 60%
    16:00 +16°C° 0 mm 3 m/S 734 mmHg 59%
    17:00 +14°C° 0 mm 3 m/S 734 mmHg 64%
    18:00 +14°C° 0 mm 2 m/S 734 mmHg 68%
    19:00 +13°C° 0 mm 2 m/S 734 mmHg 73%
    20:00 +12°C° 0 mm 1 m/S 734 mmHg 76%
    21:00 +10°C° 0 mm 1 m/S 735 mmHg 79%
    22:00 +8°C° 0 mm 1 m/S 735 mmHg 83%
    23:00 +8°C° 0 mm 1 m/S 735 mmHg 83%
    Mehr zeigen